Weather History for Wheeling, WV

Change the Weather History Date:

Monday, November 26, 2012

  Actual Average Record
Temperature  
Mean Temperature 39 °F 39 °F  
Max Temperature 47 °F 47 °F 65 °F (2006)
Min Temperature 31 °F 32 °F 9 °F (1950)
Degree Days  
Heating Degree Days 26 26  
Month to date heating degree days 630 548  
Since 1 July heating degree days 1116 1022  
Cooling Degree Days 0    
Month to date cooling degree days 0  
Year to date cooling degree days 996  
Moisture  
Dew Point 23 °F    
Average Humidity 55    
Maximum Humidity 72    
Minimum Humidity 37    
Precipitation  
Precipitation 0.00 in 0.11 in 1.39 in (2007)
Month to date precipitation 0.35 2.77  
Sea Level Pressure  
Sea Level Pressure 30.16 in    
Wind  
Wind Speed 4 mph (West)    
Max Wind Speed 10 mph    
Max Gust Speed 13 mph    
Visibility 10 miles    
Events      
T = Trace of Precipitation, MM = Missing Value Source: NWS Daily Summary

Daily Weather History Graph

Daily Weather History Graph

Search for Another Location

Airport:

Trip Planner

Search our weather history database for the weather conditions in past years. The results will help you decide how hot, cold, wet, or windy it might be!

Date:

Astronomy

Nov. 26, 2012 Rise Set
Actual Time 7:21 AM EST 4:58 PM EST
Civil Twilight 6:51 AM EST 5:28 PM EST
Nautical Twilight 6:17 AM EST 6:02 PM EST
Astronomical Twilight 5:45 AM EST 6:34 PM EST
Moon 3:50 PM EST (11/26) 5:29 AM EST (11/26)
Length of Visible Light 10h 37m
Length of Day
9h 37m
Waxing Gibbous, 97% of the Moon is Illuminated
Nov 26
Waxing Gibbous
Nov 28
Full
Dec 6
Last Quarter
Dec 13
New
Dec 20
First Quarter

Hourly Weather History & Observations

Time (EST) Temp. Windchill Dew Point Humidity Pressure Visibility Wind Dir Wind Speed Gust Speed Precip Events Conditions
12:53 AM 35.1 °F 30.1 °F 21.9 °F 59% 30.04 in 10.0 mi SW 5.8 mph - N/A   Clear
1:53 AM 36.0 °F 33.3 °F 21.9 °F 57% 30.05 in 10.0 mi WSW 3.5 mph - N/A   Clear
2:53 AM 36.0 °F 32.1 °F 23.0 °F 59% 30.06 in 10.0 mi SW 4.6 mph - N/A   Mostly Cloudy
3:53 AM 35.1 °F 31.0 °F 23.0 °F 61% 30.07 in 10.0 mi West 4.6 mph - N/A   Overcast
4:53 AM 35.1 °F 32.2 °F 24.1 °F 64% 30.09 in 10.0 mi WSW 3.5 mph - N/A   Overcast
5:53 AM 35.1 °F 32.2 °F 24.1 °F 64% 30.13 in 10.0 mi West 3.5 mph - N/A   Overcast
6:53 AM 34.0 °F - 24.1 °F 67% 30.14 in 10.0 mi Calm Calm - N/A   Mostly Cloudy
7:53 AM 32.0 °F - 24.1 °F 73% 30.17 in 10.0 mi Calm Calm - N/A   Clear
8:53 AM 35.1 °F - 25.0 °F 67% 30.19 in 10.0 mi Calm Calm - N/A   Clear
9:53 AM 37.9 °F - 26.1 °F 62% 30.20 in 10.0 mi Calm Calm - N/A   Clear
10:53 AM 39.9 °F - 26.1 °F 58% 30.21 in 10.0 mi Calm Calm - N/A   Clear
11:53 AM 42.1 °F 37.1 °F 25.0 °F 51% 30.20 in 10.0 mi SSW 8.1 mph - N/A   Clear
12:53 PM 44.1 °F 41.5 °F 25.0 °F 47% 30.18 in 10.0 mi Variable 4.6 mph - N/A   Clear
1:53 PM 45.0 °F 43.5 °F 23.0 °F 42% 30.16 in 10.0 mi WSW 3.5 mph - N/A   Clear
2:53 PM 46.0 °F 43.1 °F 21.0 °F 37% 30.16 in 10.0 mi West 5.8 mph - N/A   Clear
3:53 PM 46.9 °F - 21.0 °F 36% 30.17 in 10.0 mi West 5.8 mph - N/A   Overcast
4:53 PM 44.1 °F 40.8 °F 19.9 °F 38% 30.17 in 10.0 mi WNW 5.8 mph - N/A   Clear
5:53 PM 43.0 °F 41.3 °F 21.0 °F 42% 30.17 in 10.0 mi NNW 3.5 mph - N/A   Scattered Clouds
6:53 PM 39.9 °F - 21.0 °F 47% 30.19 in 10.0 mi Calm Calm - N/A   Overcast
7:53 PM 41.0 °F 39.0 °F 21.0 °F 45% 30.20 in 10.0 mi North 3.5 mph - N/A   Overcast
8:53 PM 39.9 °F 36.7 °F 21.9 °F 49% 30.22 in 10.0 mi NNE 4.6 mph - N/A   Overcast
9:53 PM 39.0 °F 33.4 °F 23.0 °F 53% 30.21 in 10.0 mi NNE 8.1 mph - N/A   Overcast
10:53 PM 37.0 °F 33.3 °F 24.1 °F 59% 30.21 in 10.0 mi NE 4.6 mph - N/A   Mostly Cloudy